GW4049 Weather Reports


time (UTC)temp
F
wind
direction
speed
knots
gust
knots
rain 1hr
in
rain 24hr
in
rain mn
in
humidity
%
barometer
mb
20260508130651 33 279 0.9 1.7 0.00 0.00 0.00 96 1024.1
20260508130148 32 281 0.9 0.9 0.00 0.00 0.00 95 1024.3
20260508125643 32 80 2.6 6.1 0.00 0.00 0.00 94 1024.4
20260508125140 33 34 3.5 5.2 0.00 0.00 0.00 88 1023.9
20260508124638 37 340 1.7 2.6 0.00 0.00 0.00 73 1023.7
20260508124135 37 253 0.0 0.0 0.00 0.00 0.00 71 1023.6
20260508123634 38 248 0.0 1.7 0.00 0.00 0.00 68 1023.5
20260508123131 36 139 1.7 1.7 0.00 0.00 0.00 71 1023.2
20260508122627 35 255 0.0 3.5 0.00 0.00 0.00 74 1023.2
20260508122124 34 228 0.0 0.9 0.00 0.00 0.00 75 1023.1
20260508121622 34 220 1.7 1.7 0.00 0.00 0.00 74 1023.1
20260508121120 34 211 1.7 1.7 0.00 0.00 0.00 73 1023.1
20260508120617 34 224 1.7 1.7 0.00 0.00 0.00 73 1022.9
20260508120116 34 214 2.6 2.6 0.00 0.00 0.00 71 1022.8
20260508115613 34 234 1.7 2.6 0.00 0.00 0.00 74 1022.8
20260508115109 35 232 0.9 1.7 0.00 0.00 0.00 72 1022.7
20260508114607 35 213 1.7 1.7 0.00 0.00 0.00 74 1022.5
20260508114102 35 250 0.0 1.7 0.00 0.00 0.00 74 1022.5
20260508113600 35 233 0.9 2.6 0.00 0.00 0.00 71 1022.7
20260508113058 37 224 0.9 1.7 0.00 0.00 0.00 69 1022.7
20260508112554 38 231 0.9 2.6 0.00 0.00 0.00 68 1022.7
20260508112051 38 155 3.5 6.1 0.00 0.00 0.00 67 1022.5
20260508111548 37 233 2.6 2.6 0.00 0.00 0.00 69 1022.5
20260508111045 39 285 1.7 5.2 0.00 0.00 0.00 65 1022.4
20260508110543 40 299 4.3 8.7 0.00 0.00 0.00 59 1022.4
20260508110038 39 249 0.0 3.5 0.00 0.00 0.00 64 1022.1
20260508105533 39 262 3.5 12.2 0.00 0.00 0.00 62 1022.3
20260508105031 37 247 0.9 1.7 0.00 0.00 0.00 67 1022.1
20260508104529 35 180 3.5 7.0 0.00 0.00 0.00 71 1022.3
20260508104025 35 207 3.5 5.2 0.00 0.00 0.00 80 1022.0
20260508103522 33 227 3.5 3.5 0.00 0.00 0.00 81 1022.3
20260508103020 34 256 0.0 2.6 0.00 0.00 0.00 79 1022.5
20260508102517 33 205 1.7 5.2 0.00 0.00 0.00 79 1022.3
20260508102015 33 248 0.0 2.6 0.00 0.00 0.00 80 1022.1
20260508101512 33 230 0.9 1.7 0.00 0.00 0.00 80 1022.0
20260508101008 33 210 1.7 1.7 0.00 0.00 0.00 80 1022.0
20260508100507 33 234 0.9 2.6 0.00 0.00 0.00 80 1021.8
20260508100003 33 216 0.0 0.0 0.00 0.00 0.00 79 1021.9
20260508095500 33 242 1.7 2.6 0.00 0.00 0.00 78 1022.0
20260508094957 33 230 0.0 0.0 0.00 0.00 0.00 79 1022.0
20260508094454 33 248 0.0 3.5 0.00 0.00 0.00 78 1021.9
20260508093950 33 220 1.7 2.6 0.00 0.00 0.00 81 1021.9
20260508093447 34 250 0.9 5.2 0.00 0.00 0.00 78 1022.0
20260508092945 34 224 0.9 2.6 0.00 0.00 0.00 78 1022.0
20260508092443 34 208 2.6 3.5 0.00 0.00 0.00 78 1022.1
20260508091942 34 282 0.9 2.6 0.00 0.00 0.00 77 1022.0
20260508091438 35 197 3.5 3.5 0.00 0.00 0.00 76 1022.1
20260508090935 36 252 0.0 1.7 0.00 0.00 0.00 69 1022.1
20260508090434 37 223 1.7 1.7 0.00 0.00 0.00 70 1022.3
20260508085929 38 230 1.7 2.6 0.00 0.00 0.00 66 1022.3
20260508085426 39 262 0.0 0.9 0.00 0.00 0.00 66 1022.3
20260508084923 37 129 1.7 2.6 0.00 0.00 0.00 65 1022.3
20260508084419 39 265 0.0 3.5 0.00 0.00 0.00 63 1022.3
20260508083918 40 238 0.9 2.6 0.00 0.00 0.00 60 1022.4
20260508083415 42 258 0.0 7.8 0.00 0.00 0.00 53 1022.4
20260508082914 38 11 5.2 9.6 0.00 0.00 0.00 57 1022.3
20260508082412 37 226 1.7 1.7 0.00 0.00 0.00 69 1023.1
20260508081910 37 265 0.0 1.7 0.00 0.00 0.00 67 1022.7
20260508081406 37 224 1.7 2.6 0.00 0.00 0.00 68 1022.7
20260508080902 38 230 0.9 1.7 0.00 0.00 0.00 67 1022.7
20260508080401 39 212 1.7 2.6 0.00 0.00 0.00 63 1022.7
20260508075857 41 246 4.3 6.1 0.00 0.00 0.00 59 1022.9
20260508075354 40 231 2.6 3.5 0.00 0.00 0.00 58 1022.9
20260508074852 40 267 1.7 2.6 0.00 0.00 0.00 61 1022.9
20260508074348 40 262 0.0 0.9 0.00 0.00 0.00 60 1023.1
20260508073845 41 243 1.7 5.2 0.00 0.00 0.00 63 1023.2
20260508073344 41 229 2.6 3.5 0.00 0.00 0.00 60 1022.9
20260508072840 41 270 3.5 3.5 0.00 0.00 0.00 60 1023.5
20260508072336 42 232 1.7 6.1 0.00 0.00 0.00 60 1023.3
20260508071834 42 292 3.5 8.7 0.00 0.00 0.00 56 1023.1
20260508071332 41 271 0.9 2.6 0.00 0.00 0.00 60 1023.2
20260508070829 42 353 6.1 7.8 0.00 0.00 0.00 57 1023.3
20260508070327 41 315 2.6 2.6 0.00 0.00 0.00 61 1023.3
20260508065824 41 287 7.0 9.6 0.00 0.00 0.00 60 1023.5
20260508065322 40 252 3.5 9.6 0.00 0.00 0.00 62 1023.7
20260508064820 40 252 2.6 7.0 0.00 0.00 0.00 68 1023.6
20260508064318 39 198 7.8 12.2 0.00 0.00 0.00 70 1023.6
20260508063815 37 219 3.5 5.2 0.00 0.00 0.00 75 1023.7
20260508063313 36 225 3.5 5.2 0.00 0.00 0.00 82 1023.9
20260508062810 35 244 2.6 3.5 0.00 0.00 0.00 81 1024.0
20260508062308 35 238 0.9 1.7 0.00 0.00 0.00 81 1023.6
20260508061804 36 179 2.6 2.6 0.00 0.00 0.00 79 1023.5
20260508061301 35 202 1.7 3.5 0.00 0.00 0.00 78 1023.5
20260508060758 36 232 0.9 2.6 0.00 0.00 0.00 77 1023.7
20260508060256 36 240 0.0 0.0 0.00 0.00 0.00 76 1023.3
20260508055751 37 241 0.9 1.7 0.00 0.09 0.09 75 1023.6
20260508055248 38 321 2.6 3.5 0.00 0.09 0.09 72 1023.6
20260508054744 39 260 0.0 0.9 0.00 0.09 0.09 64 1023.3
20260508054243 39 247 0.9 0.9 0.00 0.09 0.09 66 1023.6
20260508053739 37 209 2.6 3.5 0.00 0.09 0.09 70 1023.6
20260508053236 38 218 1.7 3.5 0.00 0.09 0.09 70 1023.6
20260508052734 38 230 0.0 2.6 0.00 0.09 0.09 69 1023.6
20260508052226 39 226 0.0 0.0 0.00 0.09 0.09 68 1023.5
20260508051722 41 21 1.7 3.5 0.00 0.09 0.09 64 1023.6
20260508051217 41 260 0.0 0.0 0.00 0.09 0.09 57 1023.3
20260508050714 42 258 0.0 0.0 0.00 0.09 0.09 55 1023.3
20260508050212 43 236 0.0 0.0 0.00 0.09 0.09 55 1023.2
20260508045712 44 261 0.0 5.2 0.00 0.09 0.09 51 1023.2
20260508045210 44 244 0.9 5.2 0.00 0.09 0.09 52 1023.3
20260508044707 43 237 1.7 3.5 0.00 0.09 0.09 53 1023.3
20260508044203 44 253 0.0 1.7 0.00 0.09 0.09 51 1023.2
20260508043659 44 252 0.9 7.8 0.00 0.09 0.09 48 1023.5
20260508043158 44 270 0.9 3.5 0.00 0.09 0.09 49 1023.3
20260508042654 45 301 3.5 7.0 0.00 0.09 0.09 49 1023.2
20260508042151 44 250 3.5 7.0 0.00 0.09 0.09 49 1023.2
20260508041647 44 239 4.3 6.1 0.00 0.09 0.09 49 1023.2
20260508041145 45 281 1.7 8.7 0.00 0.09 0.09 49 1023.2
20260508040641 44 255 2.6 8.7 0.00 0.09 0.09 49 1022.8
20260508040138 44 202 6.1 11.3 0.00 0.09 0.09 49 1022.7
20260508035636 45 278 3.5 12.2 0.00 0.09 0.09 49 1022.7
20260508035133 45 240 6.1 13.9 0.00 0.09 0.09 49 1022.9
20260508034630 45 230 11.3 15.6 0.00 0.09 0.09 48 1023.1
20260508034127 44 266 2.6 7.0 0.00 0.09 0.09 49 1023.1
20260508033624 44 233 4.3 16.5 0.00 0.09 0.09 49 1022.8
20260508033122 44 245 5.2 13.9 0.00 0.09 0.09 50 1022.8
20260508032618 44 219 9.6 13.9 0.00 0.09 0.09 51 1022.9
20260508032116 42 197 7.8 13.0 0.00 0.09 0.09 56 1022.8
20260508031613 41 216 5.2 7.0 0.00 0.09 0.09 60 1022.8
20260508031109 41 209 1.7 6.1 0.00 0.09 0.09 61 1022.7
20260508030605 42 226 3.5 6.1 0.00 0.09 0.09 61 1022.7
20260508030104 41 231 2.6 7.8 0.00 0.09 0.09 60 1022.9
20260508025559 42 223 1.7 3.5 0.00 0.09 0.09 60 1022.8
20260508025057 42 228 3.5 6.1 0.00 0.09 0.09 62 1022.7
20260508024552 42 220 4.3 7.0 0.00 0.09 0.09 59 1022.7
20260508024050 42 223 6.1 11.3 0.00 0.09 0.09 59 1022.3
20260508023546 43 229 6.1 8.7 0.00 0.09 0.09 59 1022.5
20260508023044 42 212 3.5 7.8 0.00 0.09 0.09 58 1022.7
20260508022539 41 257 3.5 11.3 0.00 0.09 0.09 64 1022.8
20260508022037 41 238 0.9 5.2 0.00 0.09 0.09 67 1022.7
20260508021533 41 237 5.2 7.0 0.00 0.09 0.09 67 1022.9
20260508021029 41 317 3.5 9.6 0.00 0.09 0.09 68 1023.3
20260508020526 41 274 1.7 3.5 0.00 0.09 0.09 67 1023.5
20260508020024 42 310 1.7 7.0 0.00 0.09 0.09 65 1023.3
20260508015521 42 255 0.9 6.1 0.00 0.09 0.09 65 1023.2
20260508015018 42 289 5.2 9.6 0.00 0.09 0.09 63 1023.1
20260508014515 42 230 1.7 5.2 0.00 0.09 0.09 63 1022.8
20260508014011 42 236 1.7 7.0 0.00 0.09 0.09 63 1022.7
20260508013507 43 262 3.5 5.2 0.00 0.09 0.09 61 1022.8
20260508013005 43 234 5.2 7.0 0.00 0.09 0.09 60 1022.7
20260508012501 43 235 3.5 6.1 0.00 0.09 0.09 60 1022.7
20260508011958 44 236 7.0 15.6 0.00 0.09 0.09 58 1022.7
20260508011456 44 220 5.2 12.2 0.00 0.09 0.09 58 1022.7
20260508010953 44 206 6.1 7.8 0.00 0.09 0.09 57 1022.5
20260508010450 45 252 2.6 7.8 0.00 0.09 0.09 54 1022.9
20260508005947 46 270 4.3 6.1 0.00 0.09 0.09 51 1022.5
20260508005444 46 208 3.5 8.7 0.00 0.09 0.09 49 1022.4
20260508004940 47 242 3.5 5.2 0.00 0.09 0.09 49 1022.4
20260508004436 47 299 1.7 1.7 0.00 0.09 0.09 48 1022.1
20260508003933 47 319 2.6 2.6 0.00 0.09 0.09 48 1022.0
20260508003430 48 289 1.7 6.1 0.00 0.09 0.09 46 1022.1
20260508002927 48 300 1.7 6.1 0.00 0.09 0.09 46 1021.8
20260508002424 48 8 1.7 3.5 0.00 0.09 0.09 47 1021.9
20260508001920 48 266 0.9 5.2 0.00 0.09 0.09 47 1021.9
20260508001416 49 321 3.5 6.1 0.00 0.09 0.09 45 1022.1
20260508000913 49 163 3.5 7.8 0.00 0.09 0.09 45 1022.1
20260508000405 48 278 0.0 0.0 0.00 0.09 0.09 48 1022.3
20260507235901 48 279 1.7 5.2 0.00 0.09 0.09 47 1022.3
20260507235358 48 265 1.7 3.5 0.00 0.09 0.09 46 1022.3
20260507234855 47 259 1.7 11.3 0.00 0.09 0.09 47 1022.1
20260507234352 48 281 0.9 8.7 0.00 0.09 0.09 46 1022.1
20260507233848 48 331 7.0 12.2 0.00 0.09 0.09 44 1022.1
20260507233345 49 293 4.3 7.0 0.00 0.09 0.09 43 1022.0
20260507232843 50 247 6.1 12.2 0.00 0.09 0.09 42 1022.0
20260507232339 51 182 7.0 12.2 0.00 0.09 0.09 40 1021.9
20260507231837 52 267 5.2 7.8 0.00 0.09 0.09 39 1022.0
20260507231333 51 271 4.3 8.7 0.00 0.09 0.09 40 1022.0
20260507230829 51 278 11.3 14.8 0.00 0.09 0.09 40 1022.1
20260507230322 51 316 7.8 9.6 0.00 0.09 0.09 38 1021.9
20260507225821 52 217 9.6 13.0 0.00 0.09 0.09 38 1022.0
20260507225317 51 306 5.2 6.1 0.00 0.09 0.09 39 1022.3
20260507224814 51 349 6.1 7.0 0.00 0.09 0.09 39 1022.0
20260507224310 50 323 3.5 8.7 0.00 0.09 0.09 40 1022.0
20260507223807 50 328 2.6 7.8 0.00 0.09 0.09 41 1022.0
20260507223303 50 324 1.7 8.7 0.00 0.09 0.09 42 1022.1
20260507222801 50 325 2.6 7.8 0.00 0.09 0.09 41 1022.1
20260507222256 51 239 1.7 7.0 0.00 0.09 0.09 40 1022.1
20260507221754 51 280 9.6 18.2 0.00 0.09 0.09 40 1022.1
20260507221250 51 41 3.5 8.7 0.00 0.09 0.09 41 1022.4
20260507220746 50 310 1.7 5.2 0.00 0.09 0.09 40 1022.4
20260507220245 50 207 3.5 8.7 0.00 0.09 0.09 41 1022.5
20260507215741 49 317 3.5 7.0 0.00 0.09 0.09 41 1022.1
20260507215238 50 348 5.2 7.8 0.00 0.09 0.09 40 1022.3
20260507214735 50 307 4.3 13.0 0.00 0.09 0.09 39 1022.5
20260507214232 49 279 4.3 13.0 0.00 0.09 0.09 41 1022.5
20260507213727 49 295 5.2 8.7 0.00 0.09 0.09 41 1022.7
20260507213225 49 299 4.3 7.0 0.00 0.09 0.09 40 1022.7
20260507212721 49 233 6.1 13.0 0.00 0.09 0.09 39 1022.7
20260507212218 50 349 2.6 12.2 0.00 0.09 0.09 42 1022.8
20260507211715 50 277 7.0 8.7 0.00 0.09 0.09 40 1022.9
20260507211210 50 336 5.2 9.6 0.00 0.09 0.09 39 1023.1
20260507210708 50 305 1.7 8.7 0.00 0.09 0.09 37 1023.2
20260507210205 50 237 10.4 13.0 0.00 0.09 0.09 38 1023.2
20260507205701 50 261 6.1 12.2 0.00 0.09 0.09 39 1023.1
20260507205158 51 316 5.2 12.2 0.00 0.09 0.09 40 1023.3
20260507204654 51 330 7.0 12.2 0.00 0.09 0.09 39 1023.1
20260507204152 51 351 6.1 11.3 0.00 0.09 0.09 40 1022.9
20260507203650 49 230 4.3 13.9 0.00 0.09 0.09 40 1023.2
20260507203147 50 328 11.3 13.9 0.00 0.09 0.09 39 1023.2
20260507202642 50 8 7.8 15.6 0.00 0.09 0.09 40 1022.9
20260507202139 50 354 5.2 13.9 0.00 0.09 0.09 40 1023.2
20260507201634 51 0 7.8 13.0 0.00 0.09 0.09 41 1023.2
20260507201131 50 332 2.6 7.8 0.00 0.09 0.09 40 1023.3
20260507200627 50 352 2.6 9.6 0.00 0.09 0.09 43 1023.3
20260507200123 50 306 3.5 5.2 0.00 0.09 0.09 42 1023.2
20260507195620 49 251 1.7 8.7 0.00 0.09 0.09 43 1023.2
20260507195117 50 259 2.6 11.3 0.00 0.09 0.09 43 1023.1
20260507194614 51 3 3.5 11.3 0.00 0.09 0.09 44 1023.3
20260507194109 49 257 1.7 8.7 0.00 0.09 0.09 45 1023.5
20260507193607 48 240 5.2 13.0 0.00 0.09 0.09 44 1023.5
20260507193103 48 265 7.0 13.0 0.00 0.09 0.09 45 1023.3
20260507192600 48 264 7.8 13.0 0.00 0.09 0.09 44 1023.5
20260507192057 48 282 1.7 14.8 0.00 0.09 0.09 44 1023.6
20260507191552 48 280 4.3 11.3 0.00 0.09 0.09 44 1023.2
20260507191050 49 217 9.6 13.9 0.00 0.09 0.09 46 1023.5
20260507190547 49 281 3.5 11.3 0.00 0.09 0.09 49 1023.5
20260507190045 48 352 6.1 8.7 0.05 0.09 0.09 48 1023.1
20260507185543 48 333 5.2 11.3 0.05 0.09 0.09 46 1023.7
20260507185039 48 265 5.2 9.6 0.00 0.08 0.08 48 1023.7
20260507184538 48 261 3.5 13.0 0.00 0.08 0.08 48 1023.9
20260507184036 47 235 6.1 9.6 0.07 0.08 0.08 47 1023.9
20260507183531 48 265 6.1 8.7 0.00 0.07 0.07 47 1024.0
20260507183029 46 215 6.1 15.6 0.00 0.07 0.07 50 1024.0
20260507182525 46 235 6.1 11.3 0.05 0.07 0.07 52 1024.0
20260507182021 47 261 7.0 7.8 0.05 0.07 0.07 51 1024.0
20260507181518 47 265 9.6 11.3 0.00 0.06 0.06 51 1024.0
20260507181014 47 266 9.6 15.6 0.07 0.06 0.06 49 1024.0
20260507180510 48 305 8.7 13.9 0.12 0.06 0.06 49 1023.9
20260507180007 48 232 3.5 9.6 0.05 0.05 0.05 50 1023.6
20260507175503 48 283 4.3 9.6 0.07 0.04 0.04 49 1023.5
20260507175001 47 299 3.5 5.2 0.07 0.03 0.03 54 1023.7
20260507174458 43 252 0.0 1.7 0.07 0.03 0.03 62 1023.9
20260507173956 42 275 0.0 0.9 0.00 0.02 0.02 63 1023.9
20260507173453 42 324 4.3 6.1 0.00 0.02 0.02 61 1024.1
20260507172950 43 262 0.0 3.5 0.00 0.02 0.02 59 1024.0
20260507172446 42 235 4.3 8.7 0.05 0.02 0.02 57 1023.7
20260507171942 42 218 3.5 8.7 0.05 0.02 0.02 60 1024.0
20260507171438 42 276 4.3 8.7 0.00 0.01 0.01 56 1024.1
20260507170936 41 250 2.6 8.7 0.00 0.01 0.01 60 1024.0
20260507170432 40 141 4.3 5.2 0.00 0.01 0.01 65 1023.9
20260507165929 40 172 3.5 6.1 0.07 0.01 0.01 65 1024.0
20260507165425 40 186 3.5 6.1 0.07 0.01 0.01 62 1023.9
20260507164921 40 232 1.7 6.1 0.00 0.00 0.00 66 1023.7
20260507164418 39 206 2.6 3.5 0.00 0.00 0.00 67 1024.1
20260507163915 38 223 0.9 1.7 0.00 0.00 0.00 69 1023.9
20260507163412 39 217 1.7 2.6 0.00 0.00 0.00 71 1024.0
20260507162909 38 211 1.7 2.6 0.00 0.00 0.00 73 1024.1
20260507162404 39 225 1.7 2.6 0.00 0.00 0.00 67 1024.3
20260507161902 39 216 2.6 5.2 0.00 0.00 0.00 62 1024.3
20260507161358 39 195 5.2 7.8 0.00 0.00 0.00 62 1024.6
20260507160855 39 239 3.5 11.3 0.00 0.00 0.00 62 1024.4
20260507160350 39 220 1.7 2.6 0.00 0.00 0.00 71 1024.9
20260507155847 39 209 1.7 7.0 0.00 0.00 0.00 63 1024.9
20260507155342 39 251 2.6 11.3 0.00 0.00 0.00 62 1024.6
20260507154839 39 205 7.0 13.0 0.00 0.00 0.00 61 1024.3
20260507154337 38 231 4.3 11.3 0.00 0.00 0.00 66 1024.6
20260507153833 39 229 5.2 7.0 0.00 0.00 0.00 65 1024.8
20260507153330 39 216 4.3 7.0 0.00 0.00 0.00 65 1024.8
20260507152826 39 168 5.2 7.8 0.00 0.00 0.00 61 1024.4
20260507152322 38 272 2.6 7.0 0.00 0.00 0.00 64 1024.4
20260507151818 39 222 5.2 6.1 0.00 0.00 0.00 62 1024.8
20260507151315 39 209 5.2 8.7 0.00 0.00 0.00 64 1024.6
20260507150812 39 315 7.8 16.5 0.00 0.00 0.00 61 1024.6
20260507150308 39 291 4.3 18.2 0.00 0.00 0.00 61 1024.6
20260507145804 40 241 10.4 15.6 0.00 0.00 0.00 59 1024.6
20260507145301 40 265 7.0 9.6 0.00 0.00 0.00 60 1024.6
20260507144758 40 282 8.7 14.8 0.00 0.00 0.00 59 1024.4
20260507144255 41 228 6.1 9.6 0.00 0.00 0.00 62 1024.3
20260507143752 42 341 5.2 13.0 0.00 0.00 0.00 60 1024.4
20260507143249 42 279 3.5 15.6 0.00 0.00 0.00 59 1024.1
20260507142745 41 324 6.1 13.9 0.00 0.00 0.00 60 1024.0
20260507142242 41 259 8.7 16.5 0.00 0.00 0.00 58 1024.4
20260507141739 41 237 4.3 8.7 0.00 0.00 0.00 58 1024.3
20260507141236 41 30 7.8 9.6 0.00 0.00 0.00 59 1024.3
20260507140731 40 276 5.2 12.2 0.00 0.00 0.00 60 1024.3
20260507140229 40 244 9.6 13.0 0.00 0.00 0.00 61 1024.3
20260507135726 40 277 0.9 5.2 0.00 0.00 0.00 63 1024.3
20260507135223 40 338 2.6 7.0 0.00 0.00 0.00 62 1024.4
20260507134719 39 257 3.5 8.7 0.00 0.00 0.00 62 1024.3
20260507134216 39 290 0.9 2.6 0.00 0.00 0.00 60 1024.1
20260507133712 38 269 2.6 5.2 0.00 0.00 0.00 62 1024.1
20260507133209 38 315 0.9 7.0 0.00 0.00 0.00 63 1024.1
20260507132707 38 343 2.6 6.1 0.00 0.00 0.00 62 1024.1
20260507132203 38 241 1.7 8.7 0.00 0.00 0.00 60 1024.0
20260507131700 37 268 1.7 7.0 0.00 0.00 0.00 61 1023.6
20260507131157 37 229 7.0 16.5 0.00 0.00 0.00 61 1023.7